User: anonymous   Login
Location: Caltech
(34.1382°N, 118.1253°W)
Time: 01:26:32
(UTC-08:00)
Language:

Cosmos-2242 - Orbit

View from above orbital plane
View from above orbital plane
View from above satellite
View from above satellite

Ground track
Ground track

The orbit data is extracted from the following two-line orbital elements,

1 22626U 93024A   17053.72176321  .00000308  00000-0  30969-4 0  9993
2 22626  82.5244 149.7315 0020248 137.8061 222.4720 14.87611106289134
Epoch (UTC): 22 February 2017 17:19:20
Eccentricity: 0.0020248
inclination: 82.5244°
perigee height: 591 km
apogee height: 619 km
right ascension of ascending node: 149.7315°
argument of perigee: 137.8061°
revolutions per day: 14.87611106
mean anomaly at epoch: 222.4720°
orbit number at epoch: 28913

The dashed part of the orbit path shows where the satellite is in the earth's shadow,  

DLR